Location: *
(44.3683°N, 6.6958°E)
Time: 20:19:37
(UTC+00:00)

Daily predictions for brighter satellites

Satellite Brightness Start Highest point End
(mag) Time Altitude Azimuth Time Altitude Azimuth Time Altitude Azimuth
ATLAS 5 CENTAUR R/B 1.6 17:13:48 10° SSW 17:17:55 59° ESE 17:22:30 10° NE
Unknown 3.7 17:15:38 10° SW 17:19:45 66° SE 17:23:52 10° ENE
YAOGAN 1 3.3 17:16:42 10° SE 17:20:33 32° ENE 17:24:25 10° N
Unknown 3.7 17:17:21 10° SW 17:21:27 68° SE 17:25:35 10° ENE
Unknown 3.6 17:23:57 10° SW 17:28:02 84° SSE 17:32:09 10° ENE
Unknown 3.6 17:23:56 10° SW 17:28:05 76° SE 17:32:13 10° ENE
SL-4 R/B 2.1 17:24:14 10° NW 17:28:05 51° NNE 17:31:39 10° E
Unknown 3.6 17:25:35 10° SW 17:29:43 78° SE 17:33:52 10° ENE
Cosmos 2263 Rocket 3.8 17:25:50 10° WSW 17:31:03 37° NW 17:36:17 10° NNE
Unknown 3.6 17:27:16 10° SW 17:31:24 81° SE 17:35:34 10° ENE
Okean-O 3.2 17:28:02 10° S 17:32:25 64° WSW 17:36:51 10° NNW
CSL-04 Rocket 3.9 17:27:22 10° SE 17:32:42 51° ENE 17:38:02 10° N
Unknown 3.6 17:28:55 10° SW 17:33:02 83° SSE 17:37:12 10° ENE
CZ-2D R/B 4.4 17:31:29 10° ESE 17:34:34 24° ENE 17:37:41 10° NNE
Unknown 3.6 17:30:32 10° SW 17:34:41 85° SE 17:38:50 10° ENE
Cosmos 1726 Rocket 3.9 17:31:17 10° SSE 17:35:28 44° E 17:39:39 10° NNE
Unknown 3.6 17:33:55 10° SW 17:38:05 89° SE 17:42:14 10° ENE
Cosmos 2239 Rocket 4.5 17:31:58 10° N 17:38:05 61° ENE 17:44:08 10° SSE
Cosmos 1271 Rocket 2.9 17:34:32 10° N 17:38:25 51° ENE 17:42:17 10° SSE
Cosmos 724 4.5 17:32:56 10° SSW 17:39:07 88° NW 17:45:12 10° NNE
Starlink (trailer) 3.6 17:35:33 10° SW 17:39:42 89° NW 17:43:52 10° NE
BREEZE M DEB (TANK) 2.3 17:38:44 10° NW 17:40:53 44° NNE 17:44:18 13° E
Unknown 3.6 17:37:14 10° WSW 17:41:23 86° NW 17:45:31 10° NE
Cosmos 2058 Rocket 3.6 17:38:46 10° SSE 17:42:42 34° E 17:46:38 10° NNE
Cosmos 1953 2.3 17:38:39 10° S 17:42:42 79° E 17:46:48 10° N
Unknown 3.9 17:38:43 10° WSW 17:42:44 65° NNW 17:46:47 10° NE
Unknown 3.6 17:38:52 10° WSW 17:43:01 85° NNW 17:47:05 11° NE
Cosmos 1821 Rocket 3.9 17:37:45 10° N 17:43:53 76° E 17:50:01 10° SSE
Lacrosse 5 3.6 17:40:24 10° NW 17:44:10 20° N 17:47:55 10° NE
Shenzhou-11 Module 2.9 17:42:22 10° SW 17:44:53 30° SSE 17:46:28 17° ESE
Cosmos 1833 Rocket 4.1 17:43:10 10° N 17:47:07 19° NE 17:49:44 14° E
Cosmos 1758 4.3 17:43:46 10° SSW 17:47:38 50° WNW 17:51:32 10° N
Nadezhda 3 Rocket 4.0 17:43:11 10° S 17:49:26 88° E 17:55:49 10° N
Unknown 3.7 17:45:31 10° WSW 17:49:39 77° NNW 17:53:28 12° NE
Unknown 3.7 17:45:36 10° WSW 17:49:44 75° NNW 17:53:32 12° NE
Unknown 3.7 17:46:23 10° WSW 17:50:31 75° NNW 17:54:18 12° NE
Cosmos 1703 4.1 17:47:13 10° NNE 17:50:43 30° ENE 17:54:11 10° SE
COBE Rocket 4.3 17:47:20 10° N 17:52:32 75° WNW 17:57:37 10° SSW
Cosmos 2228 3.0 17:48:13 10° S 17:52:35 73° E 17:56:57 10° NNE
Unknown 3.8 17:50:32 10° WSW 17:54:40 71° NNW 17:58:16 13° NE
Unknown 3.8 17:50:33 10° WSW 17:54:40 71° NNW 17:58:16 13° NE
Cosmos 1626 3.8 17:51:46 10° NNW 17:55:14 38° W 17:58:42 10° SSW
Unknown 3.9 17:52:18 10° WSW 17:56:26 67° NNW 17:59:59 14° NE
COSMOS 2406 3.7 17:52:42 10° NNW 17:58:11 41° ENE 18:02:53 13° SE
Cosmos 1535 Rocket 4.5 17:52:15 10° N 17:58:27 64° E 18:04:32 10° SSE
Envisat 3.6 17:53:33 10° S 17:58:35 62° W 18:03:38 10° NNW
Unknown 3.9 17:55:38 10° WSW 17:59:45 64° NNW 18:03:10 15° NE
Unknown 3.9 17:56:16 10° WSW 18:00:23 65° NNW 18:03:45 15° NE
Cosmos 1934 Rocket 4.0 17:54:16 10° N 18:00:34 66° E 18:06:52 10° SSE
Unknown 3.9 17:57:14 10° WSW 18:01:21 64° NNW 18:04:41 15° NE
Cosmos 1726 2.3 17:58:53 10° SSE 18:02:24 46° E 18:05:56 10° NNE
Cosmos 2082 Rocket 3.7 17:58:32 10° N 18:02:25 18° NE 18:04:05 16° ENE
COSMO-SKYMED 1 3.0 17:58:40 10° N 18:03:00 66° WNW 18:07:17 10° SSW
Unknown 4.0 18:00:27 10° WSW 18:04:33 63° NNW 18:07:45 16° NE
Cosmos 1939 Rocket 3.1 18:00:50 10° SE 18:04:36 45° ENE 18:08:26 10° N
Cosmos 921 Rocket 3.0 18:00:28 10° S 18:04:55 63° ESE 18:09:23 10° NNE
Cosmos 292 Rocket 4.1 18:00:58 10° S 18:05:23 40° ESE 18:09:49 10° NE
Meteor 1-11 4.5 18:00:11 10° N 18:05:43 47° ENE 18:11:17 10° SSE
Unknown 4.1 18:03:54 10° WSW 18:07:59 58° NNW 18:11:02 17° NE
Cosmos 482 Debris 4.4 18:03:45 10° WNW 18:08:44 56° NNE 18:10:07 31° E
Unknown 4.1 18:05:34 10° WSW 18:09:39 57° NNW 18:12:38 18° NE
Unknown 4.1 18:07:17 10° WSW 18:11:21 56° NNW 18:14:16 18° NE
CSL-04 Debris 4.3 18:06:05 10° S 18:11:31 78° WSW 18:17:01 10° NNW
Cosmos 1356 3.4 18:09:18 10° S 18:12:39 55° E 18:16:03 10° NNE
Unknown 4.2 18:08:57 10° WSW 18:13:02 54° NNW 18:15:52 19° NE
Lacrosse 5 rocket 1.1 18:11:53 10° NW 18:15:40 85° NE 18:17:43 27° SE
Unknown 4.3 18:12:16 10° WSW 18:16:19 52° NNW 18:19:01 20° NE
Cosmos 1953 Rocket 4.0 18:12:35 10° NNW 18:16:57 64° W 18:21:14 10° S
Unknown 4.3 18:14:02 10° WSW 18:18:04 50° NNW 18:20:42 20° NE
USA 116 3.7 18:15:52 10° N 18:18:56 59° WNW 18:22:07 10° SSW
Unknown 4.3 18:15:39 10° WSW 18:19:41 50° NNW 18:22:15 21° NE
Cosmos 2084 3.7 18:15:27 10° SW 18:19:58 73° NW 18:24:06 12° NE
Unknown 4.3 18:17:16 10° WSW 18:21:17 50° NNW 18:23:46 21° NE
CZ-4 R/B 2.8 18:17:40 10° S 18:21:35 42° W 18:25:35 10° NNW
Unknown 4.4 18:17:56 10° WSW 18:21:57 48° NNW 18:24:25 21° NE
Unknown 4.3 18:20:27 10° WSW 18:24:28 49° NNW 18:26:49 23° NE
Meteor 1-16 Rocket 4.3 18:20:31 10° SSW 18:26:09 79° WNW 18:31:38 10° N
Unknown 4.4 18:23:50 10° W 18:27:51 47° NNW 18:30:02 24° NE
Cosmos 1242 Rocket 2.7 18:24:39 10° NNW 18:28:21 77° W 18:32:01 10° S
Unknown 4.4 18:25:29 10° W 18:29:29 46° NNW 18:31:36 24° NE
Cosmos 1844 Rocket 3.5 18:24:19 10° SW 18:29:51 53° WNW 18:35:24 10° NNE
Cosmos 1328 3.8 18:26:19 10° N 18:30:20 81° W 18:34:17 10° S
Unknown 4.0 18:29:36 10° NW 18:31:23 28° N 18:31:23 28° N
ADEOS Rocket 4.0 18:25:13 10° NNE 18:32:09 34° E 18:38:41 10° SSE
Cosmos 1908 3.1 18:28:47 10° S 18:32:41 75° E 18:36:36 10° NNE
Unknown 4.5 18:28:49 10° W 18:32:48 45° NNW 18:34:47 25° NE
SPOT 3 Rocket 4.0 18:39:51 38° ENE 18:40:09 38° ENE 18:44:56 10° N
Meteor 2-10 4.1 18:35:30 10° SSW 18:40:37 74° WNW 18:45:41 10° N
Ariane Rocket 3.0 18:35:59 10° SSE 18:41:05 85° WSW 18:46:14 10° NNW
Cosmos 2278 Rocket 2.3 18:37:44 10° S 18:43:11 52° ESE 18:46:34 23° NE
Cosmos 489 Rocket 4.4 18:38:55 10° SSW 18:45:09 89° ESE 18:51:24 10° NNE
USA 238 DEB 4.1 18:41:49 10° S 18:47:26 36° ESE 18:47:26 36° ESE
USA 238 4.1 18:41:56 10° S 18:47:27 36° ESE 18:47:27 36° ESE
USA 234 3.5 18:57:30 42° ESE 18:57:52 42° SE 19:03:59 10° SSW
H-2A R/B 2.4 18:59:39 46° NE 18:59:39 46° NE 19:04:16 10° N
CZ-4C R/B 4.5 18:53:16 10° NW 18:59:50 34° WSW 19:07:03 10° S
SJ-11-01 4.1 18:59:52 68° SE 19:00:26 80° ENE 19:05:10 10° N
Cosmos 1777 Rocket 3.9 18:56:53 10° NNW 19:02:09 86° WSW 19:03:37 49° SSE
ATLAS 5 CENTAUR R/B 3.8 18:59:27 10° W 19:02:59 23° NW 19:06:53 10° NNE
SL-4 R/B 3.3 19:04:14 10° WNW 19:07:19 30° SW 19:07:19 30° SW
CZ-2C R/B 4.1 19:10:55 36° NE 19:10:55 36° NE 19:15:00 10° N
Cosmos 839 Rocket 4.5 19:05:59 10° NW 19:12:08 63° WSW 19:16:04 26° S
Gbstr 26 Del rocket 4.3 19:09:41 10° WNW 19:16:03 61° NNE 19:17:24 52° ENE
Lacrosse 5 2.9 19:23:29 10° NW 19:27:11 36° N 19:27:11 36° N
BREEZE-M DEB (TANK) 3.2 19:20:29 10° WSW 19:27:40 61° WSW 19:27:40 61° WSW
Cosmos 1833 Rocket 2.7 19:26:07 10° NNW 19:31:28 78° WNW 19:31:28 78° WNW
Resurs 01 Rocket 4.1 19:35:40 14° N 19:35:40 14° N 19:36:22 10° N
Cosmos 1459 Rocket 3.9 19:26:20 10° N 19:32:12 79° NE 19:32:12 79° NE
ARGOS 3.5 19:34:28 58° N 19:34:28 58° N 19:38:48 10° NNW
Cosmos 1727 Rocket 4.4 19:27:46 10° SSW 19:33:51 58° WNW 19:39:58 10° N
Cosmos 1802 Rocket 4.1 19:33:24 10° N 19:38:55 65° NNE 19:38:55 65° NNE
Cosmos 2082 Rocket 2.7 19:41:34 10° NNW 19:45:56 54° NNW 19:45:56 54° NNW
Cosmos 2173 Rocket 4.1 19:45:47 10° NNW 19:51:41 70° WNW 19:51:41 70° WNW
Lacrosse 5 rocket 4.2 19:52:34 10° W 19:53:24 12° WSW 19:53:24 12° WSW
ADEOS Rocket 4.1 20:10:19 10° N 20:17:51 55° WNW 20:25:00 10° SW
Cosmos 2278 Rocket 4.0 20:22:45 10° WSW 20:27:34 28° NW 20:28:35 26° NNW
H-2A R/B 4.3 20:40:17 21° WNW 20:40:17 21° WNW 20:43:04 10° NW
